| time (UTC) | temp C | wind direction | speed KPH | gust KPH | rain 1hr cm | rain 24hr cm | rain mn cm | humidity % | barometer mb |
| 20260506044503 | 3 | 360 | 0.0 | 1.6 | 0.00 | 0.00 | 0.00 | 92 | 1013.4 |
| 20260506044003 | 3 | 0 | 0.0 | 0.0 | 0.00 | 0.00 | 0.00 | 93 | 1013.4 |
| 20260506043503 | 2 | 0 | 0.0 | 0.0 | 0.00 | 0.00 | 0.00 | 88 | 1013.1 |
| 20260506043003 | 1 | 0 | 0.0 | 0.0 | 0.00 | 0.00 | 0.00 | 89 | 1013.2 |
| 20260506042503 | 0 | 0 | 0.0 | 0.0 | 0.00 | 0.00 | 0.00 | 89 | 1013.0 |
| 20260506042003 | 0 | 0 | 0.0 | 0.0 | 0.00 | 0.00 | 0.00 | 89 | 1013.0 |
| 20260506041714 | 0 | 0 | 0.0 | 0.0 | 0.00 | 0.00 | 0.00 | 89 | 1013.0 |
| 20260506041003 | -1 | 0 | 0.0 | 0.0 | 0.00 | 0.00 | 0.00 | 89 | 1012.9 |
| 20260506040503 | -1 | 0 | 0.0 | 0.0 | 0.00 | 0.00 | 0.00 | 89 | 1012.9 |
| 20260506040004 | -1 | 0 | 0.0 | 0.0 | 0.00 | 0.00 | 0.00 | 89 | 1012.7 |
| 20260506035503 | -1 | 0 | 0.0 | 0.0 | 0.00 | 0.00 | 0.00 | 89 | 1012.7 |
| 20260506035003 | -1 | 0 | 0.0 | 0.0 | 0.00 | 0.00 | 0.00 | 89 | 1012.7 |
| 20260506034503 | -2 | 0 | 0.0 | 0.0 | 0.00 | 0.00 | 0.00 | 88 | 1012.7 |
| 20260506034215 | -2 | 0 | 0.0 | 0.0 | 0.00 | 0.00 | 0.00 | 84 | 1012.8 |
| 20260506033503 | -2 | 0 | 0.0 | 0.0 | 0.00 | 0.00 | 0.00 | 84 | 1012.6 |
| 20260506033216 | -2 | 0 | 0.0 | 0.0 | 0.00 | 0.00 | 0.00 | 84 | 1012.6 |
| 20260506032714 | -2 | 0 | 0.0 | 0.0 | 0.00 | 0.00 | 0.00 | 84 | 1012.5 |
| 20260506032003 | -2 | 0 | 0.0 | 0.0 | 0.00 | 0.00 | 0.00 | 83 | 1012.5 |
| 20260506031503 | -2 | 0 | 0.0 | 0.0 | 0.00 | 0.00 | 0.00 | 83 | 1012.3 |
| 20260506031003 | -3 | 0 | 0.0 | 0.0 | 0.00 | 0.00 | 0.00 | 84 | 1012.3 |
| 20260506030503 | -3 | 0 | 0.0 | 0.0 | 0.00 | 0.00 | 0.00 | 84 | 1012.4 |
| 20260506030214 | -3 | 0 | 0.0 | 0.0 | 0.00 | 0.00 | 0.00 | 84 | 1012.3 |
| 20260506025503 | -3 | 0 | 0.0 | 0.0 | 0.00 | 0.00 | 0.00 | 84 | 1012.2 |
| 20260506025003 | -3 | 0 | 0.0 | 0.0 | 0.00 | 0.00 | 0.00 | 84 | 1012.2 |
| 20260506024504 | -3 | 0 | 0.0 | 0.0 | 0.00 | 0.00 | 0.00 | 84 | 1012.1 |
| 20260506024003 | -3 | 0 | 0.0 | 0.0 | 0.00 | 0.00 | 0.00 | 83 | 1012.1 |
| 20260506023503 | -3 | 0 | 0.0 | 0.0 | 0.00 | 0.00 | 0.00 | 83 | 1012.2 |
| 20260506023003 | -3 | 0 | 0.0 | 0.0 | 0.00 | 0.00 | 0.00 | 83 | 1012.0 |
| 20260506022503 | -3 | 0 | 0.0 | 0.0 | 0.00 | 0.00 | 0.00 | 83 | 1012.1 |
| 20260506022004 | -3 | 0 | 0.0 | 0.0 | 0.00 | 0.00 | 0.00 | 83 | 1012.0 |
| 20260506021503 | -3 | 0 | 0.0 | 0.0 | 0.00 | 0.00 | 0.00 | 83 | 1011.9 |
| 20260506021003 | -3 | 0 | 0.0 | 0.0 | 0.00 | 0.00 | 0.00 | 83 | 1011.9 |
| 20260506020503 | -3 | 0 | 0.0 | 0.0 | 0.00 | 0.00 | 0.00 | 83 | 1012.0 |
| 20260506020004 | -3 | 0 | 0.0 | 0.0 | 0.00 | 0.00 | 0.00 | 83 | 1012.0 |
| 20260506015503 | -3 | 0 | 0.0 | 0.0 | 0.00 | 0.00 | 0.00 | 83 | 1012.0 |
| 20260506015003 | -3 | 0 | 0.0 | 0.0 | 0.00 | 0.00 | 0.00 | 83 | 1012.1 |
| 20260506014503 | -3 | 0 | 0.0 | 0.0 | 0.00 | 0.00 | 0.00 | 83 | 1011.9 |
| 20260506014003 | -3 | 0 | 0.0 | 0.0 | 0.00 | 0.00 | 0.00 | 83 | 1011.9 |
| 20260506013714 | -3 | 0 | 0.0 | 0.0 | 0.00 | 0.00 | 0.00 | 83 | 1011.9 |
| 20260506013003 | -3 | 0 | 0.0 | 0.0 | 0.00 | 0.00 | 0.00 | 83 | 1011.7 |
| 20260506012503 | -3 | 0 | 0.0 | 0.0 | 0.00 | 0.00 | 0.00 | 83 | 1011.6 |
| 20260506012003 | -3 | 0 | 0.0 | 0.0 | 0.00 | 0.00 | 0.00 | 83 | 1011.4 |
| 20260506011503 | -3 | 0 | 0.0 | 0.0 | 0.00 | 0.00 | 0.00 | 82 | 1011.5 |
| 20260506011003 | -3 | 0 | 0.0 | 0.0 | 0.00 | 0.00 | 0.00 | 82 | 1011.3 |
| 20260506010503 | -3 | 0 | 0.0 | 0.0 | 0.00 | 0.00 | 0.00 | 82 | 1011.3 |
| 20260506010004 | -3 | 0 | 0.0 | 0.0 | 0.00 | 0.00 | 0.00 | 82 | 1011.3 |
| 20260506005503 | -3 | 0 | 0.0 | 0.0 | 0.00 | 0.00 | 0.00 | 82 | 1011.4 |
| 20260506005003 | -3 | 0 | 0.0 | 0.0 | 0.00 | 0.00 | 0.00 | 82 | 1011.4 |
| 20260506004504 | -3 | 0 | 0.0 | 0.0 | 0.00 | 0.00 | 0.00 | 82 | 1011.3 |
| 20260506004003 | -3 | 0 | 0.0 | 0.0 | 0.00 | 0.00 | 0.00 | 82 | 1011.1 |
| 20260506003503 | -3 | 0 | 0.0 | 0.0 | 0.00 | 0.00 | 0.00 | 82 | 1011.3 |
| 20260506003003 | -3 | 0 | 0.0 | 0.0 | 0.00 | 0.00 | 0.00 | 82 | 1011.1 |
| 20260506002503 | -3 | 0 | 0.0 | 0.0 | 0.00 | 0.00 | 0.00 | 81 | 1011.0 |
| 20260506002214 | -3 | 0 | 0.0 | 0.0 | 0.00 | 0.00 | 0.00 | 81 | 1011.1 |
| 20260506001503 | -3 | 0 | 0.0 | 0.0 | 0.00 | 0.00 | 0.00 | 81 | 1011.0 |
| 20260506001003 | -3 | 0 | 0.0 | 0.0 | 0.00 | 0.00 | 0.00 | 81 | 1010.9 |
| 20260506000503 | -3 | 0 | 0.0 | 0.0 | 0.00 | 0.00 | 0.00 | 81 | 1010.9 |
| 20260506000004 | -3 | 0 | 0.0 | 0.0 | 0.00 | 0.00 | 0.00 | 81 | 1010.8 |
| 20260505235503 | -3 | 0 | 0.0 | 0.0 | 0.00 | 0.00 | 0.00 | 81 | 1010.8 |
| 20260505235003 | -3 | 0 | 0.0 | 0.0 | 0.00 | 0.00 | 0.00 | 81 | 1010.9 |
| 20260505234503 | -3 | 0 | 0.0 | 0.0 | 0.00 | 0.00 | 0.00 | 81 | 1011.0 |
| 20260505234003 | -3 | 0 | 0.0 | 0.0 | 0.00 | 0.00 | 0.00 | 81 | 1011.0 |
| 20260505233503 | -3 | 0 | 0.0 | 0.0 | 0.00 | 0.00 | 0.00 | 80 | 1010.9 |
| 20260505233003 | -3 | 0 | 0.0 | 0.0 | 0.00 | 0.00 | 0.00 | 80 | 1010.8 |
| 20260505232503 | -3 | 0 | 0.0 | 0.0 | 0.00 | 0.00 | 0.00 | 80 | 1010.8 |
| 20260505232004 | -3 | 0 | 0.0 | 0.0 | 0.00 | 0.00 | 0.00 | 80 | 1010.8 |
| 20260505231504 | -2 | 0 | 0.0 | 0.0 | 0.00 | 0.00 | 0.00 | 79 | 1010.9 |
| 20260505231003 | -2 | 0 | 0.0 | 0.0 | 0.00 | 0.00 | 0.00 | 79 | 1010.8 |
| 20260505230713 | -2 | 0 | 0.0 | 0.0 | 0.00 | 0.00 | 0.00 | 78 | 1010.8 |
| 20260505230216 | -2 | 0 | 0.0 | 0.0 | 0.00 | 0.00 | 0.00 | 78 | 1010.8 |
| 20260505225504 | -2 | 0 | 0.0 | 0.0 | 0.00 | 0.00 | 0.00 | 78 | 1010.8 |
| 20260505225003 | -2 | 0 | 0.0 | 0.0 | 0.00 | 0.00 | 0.00 | 78 | 1010.8 |
| 20260505224503 | -2 | 0 | 0.0 | 0.0 | 0.00 | 0.00 | 0.00 | 78 | 1010.7 |
| 20260505224003 | -2 | 0 | 0.0 | 0.0 | 0.00 | 0.00 | 0.00 | 78 | 1010.7 |
| 20260505223716 | -2 | 0 | 0.0 | 0.0 | 0.00 | 0.00 | 0.00 | 78 | 1010.7 |
| 20260505223003 | -2 | 0 | 0.0 | 0.0 | 0.00 | 0.00 | 0.00 | 78 | 1010.7 |
| 20260505222503 | -2 | 0 | 0.0 | 0.0 | 0.00 | 0.00 | 0.00 | 82 | 1010.8 |
| 20260505222215 | -1 | 0 | 0.0 | 0.0 | 0.00 | 0.00 | 0.00 | 82 | 1010.6 |
| 20260505221713 | -1 | 0 | 0.0 | 0.0 | 0.00 | 0.00 | 0.00 | 81 | 1010.6 |
| 20260505221003 | -1 | 0 | 0.0 | 0.0 | 0.00 | 0.00 | 0.00 | 81 | 1010.6 |
| 20260505220503 | -1 | 0 | 0.0 | 0.0 | 0.00 | 0.00 | 0.00 | 80 | 1010.7 |
| 20260505220217 | -1 | 0 | 0.0 | 0.0 | 0.00 | 0.00 | 0.00 | 80 | 1010.6 |
| 20260505215503 | -1 | 0 | 0.0 | 0.0 | 0.00 | 0.00 | 0.00 | 80 | 1010.6 |
| 20260505215003 | -1 | 0 | 0.0 | 0.0 | 0.00 | 0.00 | 0.00 | 79 | 1010.6 |
| 20260505214503 | -1 | 0 | 0.0 | 0.0 | 0.00 | 0.00 | 0.00 | 79 | 1010.6 |
| 20260505214003 | -1 | 0 | 0.0 | 0.0 | 0.00 | 0.00 | 0.00 | 79 | 1010.6 |
| 20260505213503 | 0 | 0 | 0.0 | 0.0 | 0.00 | 0.00 | 0.00 | 78 | 1010.5 |
| 20260505213215 | 0 | 0 | 0.0 | 0.0 | 0.00 | 0.00 | 0.00 | 78 | 1010.5 |
| 20260505212503 | 0 | 0 | 0.0 | 0.0 | 0.00 | 0.00 | 0.00 | 78 | 1010.4 |
| 20260505212216 | 0 | 0 | 0.0 | 0.0 | 0.00 | 0.00 | 0.00 | 77 | 1010.5 |
| 20260505211503 | 0 | 0 | 0.0 | 0.0 | 0.00 | 0.00 | 0.00 | 77 | 1010.6 |
| 20260505211217 | 0 | 0 | 0.0 | 0.0 | 0.00 | 0.00 | 0.00 | 77 | 1010.5 |
| 20260505210503 | 0 | 0 | 0.0 | 0.0 | 0.00 | 0.00 | 0.00 | 77 | 1010.5 |
| 20260505210228 | 0 | 0 | 0.0 | 0.0 | 0.00 | 0.00 | 0.00 | 76 | 1010.5 |
| 20260505205503 | 0 | 0 | 0.0 | 0.0 | 0.00 | 0.00 | 0.00 | 75 | 1010.3 |
| 20260505205003 | 0 | 0 | 0.0 | 0.0 | 0.00 | 0.00 | 0.00 | 75 | 1010.4 |
| 20260505204503 | 0 | 0 | 0.0 | 0.0 | 0.00 | 0.00 | 0.00 | 75 | 1010.3 |
| 20260505204214 | 0 | 0 | 0.0 | 0.0 | 0.00 | 0.00 | 0.00 | 74 | 1010.3 |
| 20260505203503 | 0 | 0 | 0.0 | 0.0 | 0.00 | 0.00 | 0.00 | 74 | 1010.2 |
| 20260505203003 | 0 | 0 | 0.0 | 0.0 | 0.00 | 0.00 | 0.00 | 74 | 1010.3 |
| 20260505202503 | 0 | 0 | 0.0 | 0.0 | 0.00 | 0.00 | 0.00 | 74 | 1010.2 |
| 20260505202003 | 0 | 0 | 0.0 | 0.0 | 0.00 | 0.00 | 0.00 | 74 | 1010.3 |
| 20260505201714 | 0 | 0 | 0.0 | 0.0 | 0.00 | 0.00 | 0.00 | 74 | 1010.1 |
| 20260505201003 | 0 | 0 | 0.0 | 0.0 | 0.00 | 0.00 | 0.00 | 73 | 1010.1 |
| 20260505200503 | 0 | 0 | 0.0 | 0.0 | 0.00 | 0.00 | 0.00 | 73 | 1010.0 |
| 20260505200004 | 0 | 90 | 0.0 | 3.2 | 0.00 | 0.00 | 0.00 | 72 | 1010.1 |
| 20260505195716 | 0 | 90 | 0.0 | 3.2 | 0.00 | 0.00 | 0.00 | 72 | 1010.0 |
| 20260505195003 | 1 | 0 | 0.0 | 0.0 | 0.00 | 0.00 | 0.00 | 72 | 1010.0 |
| 20260505194503 | 1 | 0 | 0.0 | 0.0 | 0.00 | 0.00 | 0.00 | 70 | 1009.9 |
| 20260505194004 | 1 | 0 | 0.0 | 0.0 | 0.00 | 0.00 | 0.00 | 70 | 1009.9 |
| 20260505193504 | 1 | 0 | 0.0 | 0.0 | 0.00 | 0.00 | 0.00 | 69 | 1009.8 |
| 20260505193003 | 1 | 0 | 0.0 | 0.0 | 0.00 | 0.00 | 0.00 | 68 | 1009.8 |
| 20260505192503 | 1 | 0 | 0.0 | 0.0 | 0.00 | 0.00 | 0.00 | 68 | 1010.0 |
| 20260505192003 | 1 | 0 | 0.0 | 0.0 | 0.00 | 0.00 | 0.00 | 66 | 1009.9 |
| 20260505191503 | 2 | 0 | 0.0 | 0.0 | 0.00 | 0.00 | 0.00 | 64 | 1009.9 |
| 20260505191003 | 2 | 0 | 0.0 | 0.0 | 0.00 | 0.00 | 0.00 | 63 | 1009.8 |
| 20260505190504 | 2 | 0 | 0.0 | 0.0 | 0.00 | 0.00 | 0.00 | 62 | 1009.7 |
| 20260505190004 | 2 | 0 | 0.0 | 0.0 | 0.00 | 0.00 | 0.00 | 61 | 1009.7 |
| 20260505185504 | 3 | 315 | 0.0 | 3.2 | 0.00 | 0.00 | 0.00 | 64 | 1009.7 |
| 20260505185004 | 3 | 315 | 0.0 | 3.2 | 0.00 | 0.00 | 0.00 | 64 | 1009.6 |
| 20260505184503 | 3 | 303 | 0.0 | 3.2 | 0.00 | 0.00 | 0.00 | 63 | 1009.6 |
| 20260505184003 | 3 | 349 | 0.0 | 3.2 | 0.00 | 0.00 | 0.00 | 62 | 1009.6 |
| 20260505183504 | 3 | 360 | 0.0 | 3.2 | 0.00 | 0.00 | 0.00 | 61 | 1009.4 |
| 20260505183003 | 4 | 0 | 0.0 | 0.0 | 0.00 | 0.00 | 0.00 | 61 | 1009.5 |
| 20260505182503 | 4 | 360 | 0.0 | 1.6 | 0.00 | 0.00 | 0.00 | 61 | 1009.4 |
| 20260505182004 | 4 | 337 | 0.0 | 1.6 | 0.00 | 0.00 | 0.00 | 60 | 1009.4 |
| 20260505181503 | 4 | 283 | 0.0 | 3.2 | 0.00 | 0.00 | 0.00 | 59 | 1009.5 |
| 20260505181003 | 5 | 300 | 1.6 | 4.8 | 0.00 | 0.00 | 0.00 | 58 | 1009.3 |
| 20260505180503 | 5 | 300 | 1.6 | 4.8 | 0.00 | 0.00 | 0.00 | 56 | 1009.2 |
| 20260505180004 | 5 | 301 | 1.6 | 4.8 | 0.00 | 0.00 | 0.00 | 55 | 1009.2 |
| 20260505175503 | 5 | 295 | 3.2 | 4.8 | 0.00 | 0.00 | 0.00 | 54 | 1009.2 |
| 20260505175003 | 5 | 294 | 1.6 | 4.8 | 0.00 | 0.00 | 0.00 | 53 | 1009.1 |
| 20260505174504 | 5 | 318 | 1.6 | 3.2 | 0.00 | 0.00 | 0.00 | 53 | 1009.0 |
| 20260505174003 | 5 | 299 | 3.2 | 4.8 | 0.00 | 0.00 | 0.00 | 52 | 1009.0 |
| 20260505173714 | 6 | 299 | 3.2 | 4.8 | 0.00 | 0.00 | 0.00 | 52 | 1009.0 |
| 20260505173003 | 6 | 281 | 4.8 | 6.4 | 0.00 | 0.00 | 0.00 | 50 | 1009.0 |
| 20260505172503 | 6 | 307 | 4.8 | 6.4 | 0.00 | 0.00 | 0.00 | 50 | 1008.9 |
| 20260505172213 | 6 | 319 | 3.2 | 4.8 | 0.00 | 0.00 | 0.00 | 50 | 1008.8 |
| 20260505171503 | 6 | 294 | 3.2 | 6.4 | 0.00 | 0.00 | 0.00 | 49 | 1008.8 |
| 20260505171003 | 6 | 271 | 4.8 | 6.4 | 0.00 | 0.00 | 0.00 | 50 | 1008.9 |
| 20260505170503 | 6 | 296 | 4.8 | 6.4 | 0.00 | 0.00 | 0.00 | 49 | 1008.9 |
| 20260505170004 | 6 | 315 | 4.8 | 6.4 | 0.00 | 0.00 | 0.00 | 49 | 1008.8 |
| 20260505165503 | 6 | 314 | 3.2 | 6.4 | 0.00 | 0.00 | 0.00 | 50 | 1008.9 |
| 20260505165004 | 6 | 314 | 4.8 | 6.4 | 0.00 | 0.00 | 0.00 | 50 | 1008.9 |
| 20260505164504 | 6 | 321 | 4.8 | 6.4 | 0.00 | 0.00 | 0.00 | 50 | 1008.8 |
| 20260505164217 | 7 | 314 | 4.8 | 6.4 | 0.00 | 0.00 | 0.00 | 48 | 1008.9 |
| 20260505163715 | 7 | 307 | 4.8 | 6.4 | 0.00 | 0.00 | 0.00 | 48 | 1008.8 |
| 20260505163004 | 7 | 322 | 3.2 | 6.4 | 0.00 | 0.00 | 0.00 | 48 | 1008.6 |
| 20260505162503 | 7 | 302 | 4.8 | 6.4 | 0.00 | 0.00 | 0.00 | 48 | 1008.7 |
| 20260505162003 | 7 | 294 | 4.8 | 6.4 | 0.00 | 0.00 | 0.00 | 48 | 1008.7 |
| 20260505161717 | 7 | 308 | 4.8 | 8.0 | 0.00 | 0.00 | 0.00 | 48 | 1008.6 |
| 20260505161003 | 7 | 321 | 4.8 | 8.0 | 0.00 | 0.00 | 0.00 | 48 | 1008.6 |
| 20260505160503 | 7 | 329 | 4.8 | 6.4 | 0.00 | 0.00 | 0.00 | 48 | 1008.7 |
| 20260505160216 | 7 | 334 | 3.2 | 6.4 | 0.00 | 0.00 | 0.00 | 48 | 1008.6 |
| 20260505153003 | 8 | 286 | 4.8 | 6.4 | 0.00 | 0.00 | 0.00 | 43 | 1008.4 |
| 20260505152504 | 8 | 297 | 4.8 | 12.9 | 0.00 | 0.00 | 0.00 | 43 | 1008.3 |
| 20260505152003 | 8 | 315 | 6.4 | 12.9 | 0.00 | 0.00 | 0.00 | 39 | 1008.5 |
| 20260505151505 | 8 | 319 | 6.4 | 8.0 | 0.00 | 0.00 | 0.00 | 40 | 1008.5 |
| 20260505151003 | 8 | 312 | 4.8 | 8.0 | 0.00 | 0.00 | 0.00 | 39 | 1008.3 |
| 20260505150504 | 8 | 314 | 4.8 | 8.0 | 0.00 | 0.00 | 0.00 | 41 | 1008.5 |
| 20260505140503 | 10 | 298 | 4.8 | 12.9 | 0.00 | 0.00 | 0.00 | 42 | 1008.1 |
| 20260505125003 | 11 | 339 | 6.4 | 9.7 | 0.00 | 0.00 | 0.00 | 37 | 1007.8 |
| 20260505124503 | 11 | 311 | 6.4 | 14.5 | 0.00 | 0.00 | 0.00 | 36 | 1007.7 |
| 20260505124003 | 11 | 289 | 8.0 | 14.5 | 0.00 | 0.00 | 0.00 | 37 | 1007.8 |
| 20260505123712 | 10 | 279 | 8.0 | 14.5 | 0.00 | 0.00 | 0.00 | 37 | 1007.7 |
| 20260505123003 | 10 | 303 | 8.0 | 12.9 | 0.00 | 0.00 | 0.00 | 39 | 1007.6 |
| 20260505122713 | 10 | 314 | 8.0 | 12.9 | 0.00 | 0.00 | 0.00 | 41 | 1007.7 |
| 20260505122217 | 10 | 344 | 8.0 | 14.5 | 0.00 | 0.00 | 0.00 | 40 | 1007.6 |
| 20260505121714 | 10 | 351 | 8.0 | 14.5 | 0.00 | 0.00 | 0.00 | 40 | 1007.7 |
| 20260505121003 | 10 | 312 | 8.0 | 8.0 | 0.00 | 0.00 | 0.00 | 40 | 1007.7 |
| 20260505120503 | 10 | 304 | 8.0 | 16.1 | 0.00 | 0.00 | 0.00 | 43 | 1007.5 |
| 20260505120005 | 10 | 306 | 8.0 | 16.1 | 0.00 | 0.00 | 0.00 | 42 | 1007.4 |
| 20260505115716 | 10 | 305 | 8.0 | 16.1 | 0.00 | 0.00 | 0.00 | 41 | 1007.4 |
| 20260505115003 | 11 | 301 | 6.4 | 8.0 | 0.00 | 0.00 | 0.00 | 41 | 1007.3 |
| 20260505114503 | 11 | 315 | 6.4 | 8.0 | 0.00 | 0.00 | 0.00 | 40 | 1007.4 |
| 20260505114003 | 11 | 301 | 6.4 | 8.0 | 0.00 | 0.00 | 0.00 | 41 | 1007.5 |
| 20260505113503 | 11 | 304 | 6.4 | 12.9 | 0.00 | 0.00 | 0.00 | 44 | 1007.3 |
| 20260505113004 | 10 | 324 | 6.4 | 12.9 | 0.00 | 0.00 | 0.00 | 45 | 1007.3 |
| 20260505112503 | 10 | 323 | 8.0 | 11.3 | 0.00 | 0.00 | 0.00 | 43 | 1007.3 |
| 20260505112003 | 10 | 321 | 8.0 | 11.3 | 0.00 | 0.00 | 0.00 | 41 | 1007.1 |
| 20260505111503 | 10 | 326 | 6.4 | 8.0 | 0.00 | 0.00 | 0.00 | 43 | 1007.0 |
| 20260505111003 | 11 | 301 | 6.4 | 8.0 | 0.00 | 0.00 | 0.00 | 44 | 1006.9 |
| 20260505110503 | 10 | 330 | 6.4 | 8.0 | 0.00 | 0.00 | 0.00 | 46 | 1007.0 |
| 20260505110214 | 10 | 321 | 6.4 | 12.9 | 0.00 | 0.00 | 0.00 | 44 | 1006.7 |
| 20260505102003 | 11 | 296 | 6.4 | 8.0 | 0.00 | 0.00 | 0.00 | 49 | 1006.4 |
| 20260505101716 | 11 | 276 | 6.4 | 8.0 | 0.00 | 0.00 | 0.00 | 46 | 1006.4 |
| 20260505101003 | 11 | 294 | 6.4 | 6.4 | 0.00 | 0.00 | 0.00 | 50 | 1006.3 |
| 20260505100505 | 11 | 309 | 6.4 | 8.0 | 0.00 | 0.00 | 0.00 | 50 | 1006.3 |
| 20260505100004 | 11 | 315 | 6.4 | 12.9 | 0.00 | 0.00 | 0.00 | 50 | 1006.1 |
| 20260505095503 | 11 | 317 | 6.4 | 12.9 | 0.00 | 0.03 | 0.00 | 51 | 1006.1 |
| 20260505095003 | 10 | 305 | 6.4 | 9.7 | 0.00 | 0.03 | 0.00 | 51 | 1006.0 |
| 20260505094503 | 11 | 286 | 4.8 | 8.0 | 0.00 | 0.03 | 0.00 | 51 | 1006.0 |
| 20260505094004 | 11 | 298 | 4.8 | 6.4 | 0.00 | 0.03 | 0.00 | 53 | 1006.0 |
| 20260505093714 | 10 | 301 | 4.8 | 6.4 | 0.00 | 0.03 | 0.00 | 52 | 1005.9 |
| 20260505093217 | 10 | 306 | 6.4 | 6.4 | 0.00 | 0.05 | 0.00 | 52 | 1005.9 |
| 20260505092503 | 11 | 339 | 6.4 | 6.4 | 0.00 | 0.05 | 0.00 | 56 | 1005.9 |
| 20260505092003 | 10 | 323 | 6.4 | 8.0 | 0.00 | 0.05 | 0.00 | 54 | 1005.7 |
| 20260505091503 | 11 | 304 | 4.8 | 8.0 | 0.00 | 0.05 | 0.00 | 52 | 1005.7 |
| 20260505091003 | 11 | 302 | 4.8 | 8.0 | 0.00 | 0.10 | 0.00 | 55 | 1005.6 |
| 20260505090503 | 10 | 301 | 4.8 | 6.4 | 0.00 | 0.10 | 0.00 | 58 | 1005.5 |
| 20260505090004 | 10 | 287 | 6.4 | 11.3 | 0.00 | 0.10 | 0.00 | 56 | 1005.5 |
| 20260505085503 | 11 | 293 | 4.8 | 11.3 | 0.00 | 0.10 | 0.00 | 56 | 1005.5 |
| 20260505085003 | 10 | 310 | 3.2 | 6.4 | 0.00 | 0.10 | 0.00 | 60 | 1005.3 |
| 20260505084503 | 10 | 314 | 4.8 | 12.9 | 0.00 | 0.13 | 0.00 | 60 | 1005.3 |
| 20260505084003 | 10 | 322 | 6.4 | 12.9 | 0.00 | 0.13 | 0.00 | 55 | 1005.2 |
| 20260505083503 | 11 | 331 | 4.8 | 6.4 | 0.00 | 0.13 | 0.00 | 54 | 1005.0 |
| 20260505083003 | 11 | 319 | 4.8 | 8.0 | 0.00 | 0.13 | 0.00 | 49 | 1005.0 |
| 20260505082503 | 12 | 305 | 4.8 | 8.0 | 0.00 | 0.15 | 0.00 | 49 | 1004.8 |
| 20260505082003 | 11 | 294 | 4.8 | 8.0 | 0.00 | 0.15 | 0.00 | 52 | 1004.6 |
| 20260505081503 | 10 | 343 | 4.8 | 12.9 | 0.00 | 0.18 | 0.00 | 55 | 1004.8 |
| 20260505081003 | 9 | 351 | 4.8 | 12.9 | 0.00 | 0.18 | 0.00 | 59 | 1004.6 |
| 20260505080713 | 8 | 319 | 4.8 | 11.3 | 0.00 | 0.18 | 0.00 | 59 | 1004.6 |
| 20260505080216 | 9 | 300 | 4.8 | 11.3 | 0.00 | 0.20 | 0.00 | 61 | 1004.7 |
| 20260505075503 | 9 | 292 | 3.2 | 6.4 | 0.00 | 0.23 | 0.00 | 64 | 1004.6 |
| 20260505075004 | 9 | 311 | 3.2 | 6.4 | 0.00 | 0.23 | 0.00 | 63 | 1004.6 |
| 20260505074503 | 9 | 315 | 4.8 | 6.4 | 0.00 | 0.28 | 0.00 | 63 | 1004.4 |
| 20260505074003 | 10 | 317 | 3.2 | 6.4 | 0.00 | 0.30 | 0.00 | 63 | 1004.2 |
| 20260505073716 | 10 | 309 | 3.2 | 8.0 | 0.00 | 0.33 | 0.00 | 63 | 1004.3 |
| 20260505073214 | 9 | 300 | 4.8 | 8.0 | 0.00 | 0.33 | 0.00 | 65 | 1004.2 |
| 20260505072503 | 9 | 315 | 4.8 | 6.4 | 0.00 | 0.33 | 0.00 | 63 | 1003.9 |
| 20260505072003 | 10 | 314 | 4.8 | 6.4 | 0.00 | 0.36 | 0.00 | 61 | 1003.9 |
| 20260505071712 | 10 | 305 | 3.2 | 6.4 | 0.00 | 0.36 | 0.00 | 60 | 1003.9 |
| 20260505071004 | 11 | 262 | 4.8 | 6.4 | 0.00 | 0.36 | 0.00 | 58 | 1003.7 |
| 20260505070504 | 11 | 284 | 4.8 | 6.4 | 0.00 | 0.36 | 0.00 | 57 | 1003.7 |
| 20260505070216 | 11 | 324 | 4.8 | 6.4 | 0.00 | 0.36 | 0.00 | 57 | 1003.6 |
| 20260505065503 | 11 | 312 | 4.8 | 6.4 | 0.00 | 0.36 | 0.00 | 56 | 1003.5 |
| 20260505065003 | 12 | 306 | 4.8 | 6.4 | 0.00 | 0.36 | 0.00 | 56 | 1003.5 |
| 20260505064503 | 11 | 311 | 6.4 | 6.4 | 0.00 | 0.36 | 0.00 | 56 | 1003.2 |
| 20260505064003 | 11 | 306 | 6.4 | 8.0 | 0.00 | 0.36 | 0.00 | 55 | 1003.2 |
| 20260505063503 | 11 | 307 | 6.4 | 11.3 | 0.00 | 0.36 | 0.00 | 55 | 1003.1 |
| 20260505063004 | 11 | 307 | 6.4 | 11.3 | 0.00 | 0.36 | 0.00 | 55 | 1002.9 |
| 20260505062503 | 11 | 313 | 6.4 | 8.0 | 0.00 | 0.36 | 0.00 | 57 | 1002.8 |
| 20260505062003 | 11 | 335 | 6.4 | 8.0 | 0.00 | 0.36 | 0.00 | 55 | 1002.6 |
| 20260505061504 | 12 | 321 | 4.8 | 8.0 | 0.00 | 0.36 | 0.00 | 55 | 1002.8 |
| 20260505061216 | 12 | 311 | 4.8 | 8.0 | 0.00 | 0.36 | 0.00 | 55 | 1002.7 |
| 20260505060503 | 11 | 301 | 4.8 | 9.7 | 0.00 | 0.36 | 0.00 | 56 | 1002.5 |
| 20260505060003 | 11 | 271 | 4.8 | 9.7 | 0.00 | 0.36 | 0.00 | 56 | 1002.5 |
| 20260505055503 | 11 | 317 | 3.2 | 6.4 | 0.00 | 0.36 | 0.00 | 60 | 1002.4 |
| 20260505055003 | 10 | 329 | 3.2 | 6.4 | 0.00 | 0.36 | 0.00 | 61 | 1002.6 |
| 20260505054504 | 10 | 332 | 3.2 | 6.4 | 0.00 | 0.36 | 0.00 | 60 | 1002.3 |
| 20260505054214 | 10 | 350 | 3.2 | 6.4 | 0.00 | 0.36 | 0.00 | 59 | 1002.4 |
| 20260505053717 | 11 | 355 | 3.2 | 6.4 | 0.00 | 0.36 | 0.00 | 59 | 1002.4 |
| 20260505053003 | 11 | 360 | 4.8 | 6.4 | 0.00 | 0.36 | 0.00 | 59 | 1002.2 |
| 20260505052503 | 10 | 334 | 3.2 | 6.4 | 0.00 | 0.36 | 0.00 | 61 | 1002.2 |
| 20260505052003 | 10 | 329 | 3.2 | 9.7 | 0.00 | 0.36 | 0.00 | 63 | 1002.2 |
| 20260505051503 | 10 | 317 | 3.2 | 9.7 | 0.00 | 0.36 | 0.00 | 65 | 1002.2 |
| 20260505051003 | 9 | 293 | 3.2 | 8.0 | 0.00 | 0.36 | 0.00 | 68 | 1002.1 |
| 20260505050715 | 8 | 302 | 4.8 | 6.4 | 0.00 | 0.36 | 0.00 | 69 | 1002.3 |
| 20260505050213 | 8 | 311 | 4.8 | 6.4 | 0.00 | 0.36 | 0.00 | 69 | 1002.1 |